#timestamp,LO_Frequency,Hit,StdDev 
1609272015.8,286047002.3,P
1609272035.6,286047003.8,P
1609272055.4,286047004.0,Y
1609272075.3,286047000.7,P
1609272095.1,286046999.9,N
1609272115.8,286047000.8,N
1609272135.7,286047002.8,Y
1609272155.5,286047000.0,P
1609272175.3,286047002.5,P
1609272195.2,286047002.7,N
1609272215.0,286047003.7,Y
1609272215.9,286047003.7,P
1609272235.7,286047001.8,N
1609272255.6,286047001.3,N
1609272275.4,286047001.4,N
1609272295.2,286047004.3,Y
1609272315.1,286047002.2,P
1609272316.0,286047002.2,P
1609272335.8,286047001.7,P
1609272355.6,286047002.8,Y
1609272375.5,286047000.5,P
1609272395.3,286047002.5,P
1609272415.1,286047002.5,N
1609272435.9,286047003.8,Y
1609272455.7,286047002.4,P
1609272475.5,286047004.2,P
1609272495.4,286047002.6,N
1609272515.2,286047002.0,N
1609272535.0,286047001.8,N
1609272535.9,286047001.8,N
1609272555.8,286047003.2,Y
1609272575.6,286046999.8,P
1609272595.4,286047000.1,N
1609272615.3,286047002.2,N
1609272635.1,286047002.6,N
1609272655.8,286047001.7,N
1609272675.7,286047004.0,Y
1609272695.5,286047004.2,P
1609272715.3,286047004.2,P
1609272735.2,286047004.2,P
1609272755.0,286047003.9,Y
1609272755.9,286047003.9,P
1609272775.7,286047001.0,P
1609272795.6,286047001.9,N
1609272815.4,286047004.3,Y
1609272835.2,286047001.1,P
1609272855.1,286047000.9,N
1609272856.0,286047000.9,N
1609272875.8,286046999.9,N
1609272895.6,286046999.9,N
1609272915.5,286047000.2,N
1609272935.3,286047002.1,N
1609272955.1,286047002.1,N
1609272975.9,286047002.4,N
1609272995.7,286047002.1,N
1609273015.5,286047002.1,N
1609273035.4,286047002.1,N
1609273055.2,286047001.3,N
1609273075.0,286047003.4,Y
1609273075.9,286047003.4,P
1609273095.8,286047003.9,P
1609273115.6,286047004.1,P
1609273135.4,286047001.4,N
1609273155.3,286047004.1,Y
1609273175.1,286047002.0,P
1609273195.8,286047001.3,P
1609273215.7,286047001.4,N
1609273235.5,286047001.4,N
1609273255.3,286047003.7,Y
1609273275.2,286047002.5,P
1609273295.0,286047002.8,P
1609273295.9,286047002.8,P
1609273315.8,286047002.2,Y
1609273335.6,286047000.7,P
1609273355.4,286047002.2,N
1609273375.2,286047001.8,N
1609273395.1,286047004.0,Y
1609273396.0,286047004.0,P
1609273415.8,286047000.4,N
1609273435.7,286047000.4,N
1609273455.5,286047000.3,N
1609273475.3,286047000.0,N
1609273495.2,286046999.7,N
1609273515.9,286047002.4,N
1609273535.7,286046999.8,N
1609273555.6,286047001.0,N
1609273575.4,286047000.4,N
1609273595.2,286047000.3,N
1609273615.1,286047000.1,N
1609273616.0,286047000.1,N
1609273635.8,286047000.8,N
1609273655.6,286047001.0,N
1609273675.5,286046999.9,N
1609273695.3,286046999.7,N
1609273715.1,286047000.9,N
1609273735.9,286047000.4,N
1609273755.7,286047001.9,N
1609273775.5,286047001.8,N
1609273795.4,286046999.8,N
1609273815.2,286047001.5,N
1609273835.0,286047001.8,N
1609273835.9,286047001.8,N
1609273855.8,286047004.4,Y
1609273875.6,286047000.4,P
1609273895.4,286047002.4,P
1609273915.3,286047000.2,N
1609273935.1,286047000.3,N
1609273936.0,286047000.3,N
1609273955.8,286047000.2,N
1609273975.7,286047000.2,N
1609273995.5,286047002.8,Y
1609274015.3,286047000.1,P
1609274035.2,286047000.2,N
1609274055.9,286047002.6,P
1609274075.7,286047002.7,N
1609274095.6,286047002.6,N
1609274115.4,286047001.9,N
1609274135.2,286047002.5,N
1609274155.1,286047002.7,N
1609274156.0,286047002.7,N
1609274175.8,286047000.6,N
1609274195.6,286047001.1,N
1609274215.5,286046998.6,N
1609274235.3,286047001.2,N
1609274255.1,286046998.4,N
1609274275.9,286047000.5,N
1609274295.7,286047000.3,N
1609274315.5,286047000.9,N
1609274335.4,286047001.0,N
1609274355.2,286046998.6,N
1609274375.0,286046999.5,N
1609274375.9,286046999.5,N
1609274395.8,286046995.3,Y
1609274415.6,286046995.1,P
1609274435.4,286046997.6,N
1609274455.3,286046997.5,N
1609274475.1,286046997.6,N
1609274476.0,286046997.6,N
1609274495.8,286046995.4,N
1609274515.7,286046995.4,N
1609274535.5,286046995.1,N
1609274555.3,286046995.1,N
1609274575.2,286046995.5,N
1609274595.9,286046995.3,N
1609274615.7,286046995.1,N
1609274635.6,286046995.0,Y
1609274655.4,286046999.0,P
1609274675.2,286046999.4,N
1609274695.1,286046999.0,N
1609274696.0,286046999.0,N
1609274715.8,286046998.9,N
1609274735.6,286046997.2,N
1609274755.5,286046996.6,Y
1609274775.3,286046998.1,P
1609274795.1,286047001.1,P
1609274815.9,286046998.7,N
1609274835.7,286046997.4,N
1609274855.5,286046997.3,N
1609274875.4,286046996.9,N
1609274895.2,286046997.2,N
1609274915.0,286046996.0,Y
1609274915.9,286046996.0,P
1609274935.8,286046998.5,N
1609274955.6,286046996.9,N
1609274975.4,286046997.7,N
1609274995.3,286046996.9,Y
1609275015.1,286046998.9,P
1609275035.8,286046998.8,N
1609275055.7,286046999.0,N
1609275075.5,286047000.7,N
1609275095.3,286047001.2,N
1609275115.2,286046999.0,N
1609275135.0,286046998.7,N
1609275135.9,286046998.7,N
1609275155.7,286046998.7,N
1609275175.6,286046999.3,N
1609275195.4,286046998.8,N
1609275215.2,286046999.2,N
1609275235.1,286046996.6,Y
1609275236.0,286046996.6,P
1609275255.8,286046998.6,N
1609275275.6,286046998.6,N
1609275295.5,286046996.9,Y
1609275315.3,286047000.8,P
1609275335.1,286046998.9,N
1609275355.9,286046996.6,P
1609275375.7,286046997.4,N
1609275395.5,286046999.2,N
1609275415.4,286046999.2,N
1609275435.2,286046997.2,N
1609275455.0,286046997.3,N
1609275455.9,286046997.3,N
1609275475.8,286046997.6,N
1609275495.6,286046995.3,Y
1609275515.5,286046999.2,P
1609275535.3,286046997.2,P
1609275555.1,286046996.7,P
1609275575.9,286046997.1,Y
1609275595.7,286046998.1,P
